[[{"header":{"parameterUnit":"m.s-1","parameterCategory":1,"la1":30.2991,"la2":30.254,"lo1":-89.0895,"lo2":-89.0444,"dy":0.0017,"dx":0.0017,"nx":28,"ny":28,"refTime":"2025-11-19T09:00:00:Z","depth":0,"parameterNumber":2,"parameterNumberName":"U-component_of_WINDS"},"data":[0,0,0,0,0,0,0,0,0,0,0,0,0,0,0,0,0,0,0,0,0,0,0,0,0,0,0,0,0,0,0,0,0,0,0,0,0,0,0,0,0,0,0,0,0,0,0,0,0,0,0,0,0,0,0,0,0,0,-0.5673,-0.5672,0,-0.56,-0.5599,-0.5599,-0.5538,-0.5537,-0.5536,-0.5536,-0.5463,-0.5462,-0.5461,0,0,0,0,0,0,0,0,0,0,0,0,0,-0.5763,-0.5761,-0.5673,-0.5672,-0.5671,-0.56,-0.5599,-0.5598,-0.5538,-0.5537,-0.5536,-0.5536,-0.5464,-0.5462,-0.5461,0,0,0,0,0,0,0,0,0,0,0,0,0,-0.571,-0.5761,-0.5673,-0.5633,-0.5628,-0.5601,-0.5599,-0.5598,-0.5538,-0.5537,-0.5536,-0.5535,-0.5464,-0.5462,-0.546,-0.5468,0,0,-0.5454,-0.5453,0,0,0,0,0,0,0,0,-0.5713,-0.5707,-0.5639,-0.5635,-0.563,-0.5577,-0.5604,-0.5555,-0.5538,-0.5572,-0.5536,-0.5535,-0.5502,-0.5497,-0.5485,-0.5465,-0.5461,-0.5454,-0.5453,-0.5452,-0.5452,0,0,0,0,0,0,0,-0.5717,-0.571,-0.5644,-0.5639,-0.5633,-0.5619,-0.561,-0.5595,-0.5544,-0.5569,-0.5565,-0.5557,-0.5499,-0.5488,-0.5483,-0.546,-0.5454,-0.5452,-0.5451,-0.545,-0.5444,-0.5445,0,0,0,0,0,0,-0.5727,-0.5713,-0.5647,-0.5642,-0.567,-0.5618,-0.5608,-0.5595,-0.5544,-0.5535,-0.5558,-0.5554,-0.5491,-0.5486,-0.5481,-0.5486,-0.5452,-0.545,-0.5449,-0.5443,-0.5444,-0.5445,0,0,0,0,0,0,-0.5729,-0.5721,-0.565,-0.5676,-0.5666,-0.5618,-0.5603,-0.5594,-0.5582,-0.5535,-0.5526,-0.5555,-0.549,-0.5483,-0.5472,-0.5483,-0.5449,-0.5448,-0.5442,-0.5443,-0.5444,-0.5498,0,0,0,0,0,0,-0.5732,-0.5722,-0.5724,-0.5677,-0.5665,-0.5641,-0.5604,-0.5594,-0.5579,-0.5574,-0.553,-0.5521,-0.5489,-0.5475,-0.547,-0.548,-0.5446,-0.544,-0.5442,-0.5444,-0.5495,-0.5502,-0.5507,0,0,0,0,0,-0.5735,-0.5742,-0.5724,-0.5717,-0.5666,-0.5642,-0.5635,-0.5597,-0.558,-0.5582,-0.5552,-0.5523,-0.5483,-0.5474,-0.5468,-0.5478,-0.5439,-0.5442,-0.5444,-0.5493,-0.55,-0.5507,0,0,0,0,0,0,-0.5792,-0.5735,-0.5715,-0.5707,-0.568,-0.5632,-0.5632,-0.5606,-0.5584,-0.558,-0.5534,-0.5525,-0.5519,-0.5497,-0.5488,-0.5483,-0.5458,-0.5459,-0.5497,-0.5504,-0.5509,-0.5514,-0.5444,0,0,0,0,0,-0.5803,-0.5788,-0.574,-0.5737,-0.5725,-0.5681,-0.5669,-0.5642,-0.5613,-0.5601,-0.557,-0.5543,-0.5524,-0.5513,-0.5493,-0.5493,-0.5483,-0.5496,-0.5502,-0.5507,-0.5508,-0.5507,-0.5513,-0.5452,-0.5452,-0.5452,0,0,-0.5827,-0.5794,-0.5787,-0.5748,-0.5723,-0.571,-0.5672,-0.5658,-0.5647,-0.5599,-0.5586,-0.5563,-0.553,-0.5524,-0.552,-0.5506,-0.5523,-0.551,-0.5514,-0.5513,-0.551,-0.5516,-0.5521,-0.5454,-0.5454,-0.5453,0,0,-0.5863,-0.5836,-0.5831,-0.5808,-0.5772,-0.5744,-0.5743,-0.5699,-0.5682,-0.5668,-0.5632,-0.562,-0.5588,-0.5566,-0.5551,-0.5582,-0.5555,-0.5577,-0.5606,-0.5606,-0.5611,-0.5615,-0.5626,-0.563,-0.5578,-0.5578,-0.5578,0,-0.5896,-0.5873,-0.5833,-0.5821,-0.5806,-0.5762,-0.5757,-0.5737,-0.5697,-0.5688,-0.5673,-0.5633,-0.5608,-0.5597,-0.5604,-0.5594,-0.5592,-0.5581,-0.5613,-0.5617,-0.562,-0.563,-0.5634,-0.5581,-0.5581,-0.5581,-0.558,0,-0.5917,-0.5901,-0.5902,-0.5864,-0.5849,-0.5841,-0.5801,-0.579,-0.5766,-0.5739,-0.5727,-0.5695,-0.5669,-0.5665,-0.564,-0.5651,-0.5643,-0.5622,-0.5595,-0.5629,-0.5638,-0.5642,-0.5585,-0.5584,-0.5583,-0.5583,0,0,-0.5984,-0.5925,-0.5926,-0.5909,-0.5867,-0.5855,-0.5846,-0.582,-0.5812,-0.5787,-0.5779,-0.5755,-0.5735,-0.5718,-0.5691,-0.5691,-0.5718,-0.5669,-0.5668,-0.5679,-0.5728,-0.5744,-0.5749,-0.57,-0.5701,-0.5701,-0.5731,0,-0.6012,-0.5993,-0.5958,-0.595,-0.5936,-0.5895,-0.5888,-0.5863,-0.5838,-0.5824,-0.5797,-0.5781,-0.5755,-0.5745,-0.5743,-0.5715,-0.5727,-0.5712,-0.5693,-0.5693,-0.5702,-0.5754,-0.577,-0.58,-0.5734,-0.5735,-0.5735,0,-0.6042,-0.6019,-0.601,-0.5971,-0.5964,-0.5958,-0.5932,-0.5918,-0.5889,-0.5872,-0.5854,-0.5825,-0.5815,-0.5792,-0.5778,-0.5769,-0.576,-0.5745,-0.5745,-0.5741,-0.5716,-0.5751,-0.5808,-0.5812,-0.574,-0.574,-0.5739,0,-0.6092,-0.6059,-0.605,-0.6036,-0.599,-0.5987,-0.5968,-0.5938,-0.5925,-0.5903,-0.5894,-0.5872,-0.586,-0.5844,-0.581,-0.5796,-0.5801,-0.5774,-0.5786,-0.5787,-0.5788,-0.5788,-0.5844,-0.5783,-0.5783,-0.5783,-0.5783,0,-0.6127,-0.6123,-0.6072,-0.6066,-0.6061,-0.6022,-0.6018,-0.5996,-0.597,-0.596,-0.5924,-0.5915,-0.5872,-0.5859,-0.5833,-0.5826,-0.5821,-0.5807,-0.58,-0.581,-0.5812,-0.5802,-0.5799,-0.5784,-0.5784,-0.5784,-0.5784,0,-0.6181,-0.6146,-0.6133,-0.6091,-0.6081,-0.6079,-0.6044,-0.6037,-0.6012,-0.6,-0.5995,-0.5955,-0.5938,-0.5904,-0.5877,-0.586,-0.5859,-0.5847,-0.5869,-0.5864,-0.5879,-0.5878,-0.593,-0.5935,-0.5872,-0.5872,-0.5873,0,-0.6205,-0.6201,-0.6159,-0.615,-0.6132,-0.6117,-0.6104,-0.6066,-0.6054,-0.6022,-0.602,-0.6001,-0.5983,-0.5958,-0.5927,-0.5907,-0.5894,-0.5914,-0.5891,-0.5902,-0.5895,-0.5895,-0.5895,-0.5919,-0.592,-0.592,-0.5921,0,-0.6251,-0.6235,-0.6217,-0.6194,-0.618,-0.616,-0.6138,-0.6133,-0.609,-0.6079,-0.6061,-0.6047,-0.6021,-0.6002,-0.5978,-0.596,-0.5934,-0.5929,-0.5931,-0.594,-0.5953,-0.5946,-0.5882,-0.5927,-0.5927,-0.5926,-0.5926,-0.5926,-0.6291,-0.6286,-0.6256,-0.6238,-0.6218,-0.6199,-0.6191,-0.6166,-0.615,-0.6125,-0.6104,-0.6089,-0.6062,-0.6027,-0.601,-0.5998,-0.5985,-0.5988,-0.5988,-0.599,-0.5994,-0.5956,-0.5994,-0.5994,-0.5993,-0.5993,-0.5993,0,-0.6335,-0.6314,-0.6298,-0.6269,-0.6256,-0.6233,-0.6209,-0.6199,-0.6185,-0.6162,-0.6146,-0.6127,-0.6109,-0.6078,-0.6058,-0.6054,-0.6042,-0.605,-0.605,-0.6046,-0.6006,-0.6007,-0.6061,-0.6061,-0.6061,-0.6061,-0.6061,-0.6061,-0.6356,-0.6347,-0.6328,-0.631,-0.6289,-0.6273,-0.6261,-0.6244,-0.6226,-0.6206,-0.6191,-0.6171,-0.6145,-0.6123,-0.6107,-0.6098,-0.6092,-0.6105,-0.6092,-0.6055,-0.6049,-0.6043,-0.6043,-0.6104,-0.6104,-0.6133,-0.6133,-0.6133]},{"header":{"parameterUnit":"m.s-1","parameterCategory":1,"la1":30.2991,"la2":30.254,"lo1":-89.0895,"lo2":-89.0444,"dy":0.0017,"dx":0.0017,"nx":28,"ny":28,"refTime":"2025-11-19T09:00:00:Z","depth":0,"parameterNumber":3,"parameterNumberName":"V-component_of_WINDS"},"data":[0,0,0,0,0,0,0,0,0,0,0,0,0,0,0,0,0,0,0,0,0,0,0,0,0,0,0,0,0,0,0,0,0,0,0,0,0,0,0,0,0,0,0,0,0,0,0,0,0,0,0,0,0,0,0,0,0,0,2.6218,2.6218,0,2.6179,2.6178,2.6178,2.613,2.613,2.6129,2.6128,2.6085,2.6084,2.6084,0,0,0,0,0,0,0,0,0,0,0,0,0,2.6251,2.6251,2.6218,2.6218,2.6217,2.6179,2.6178,2.6178,2.6131,2.613,2.6129,2.6128,2.6085,2.6084,2.6084,0,0,0,0,0,0,0,0,0,0,0,0,0,2.6227,2.6251,2.6218,2.6189,2.6186,2.6179,2.6178,2.6178,2.6131,2.613,2.6129,2.6128,2.6085,2.6084,2.6083,2.6101,0,0,2.6081,2.6081,0,0,0,0,0,0,0,0,2.6228,2.6226,2.6194,2.6191,2.6188,2.6159,2.6174,2.6152,2.6131,2.6152,2.6128,2.6127,2.611,2.6107,2.6102,2.6099,2.6097,2.6081,2.6081,2.608,2.608,0,0,0,0,0,0,0,2.623,2.6227,2.6202,2.6194,2.619,2.6178,2.6173,2.6169,2.6137,2.615,2.6146,2.6142,2.6108,2.6103,2.61,2.6096,2.6081,2.6081,2.608,2.608,2.6106,2.6107,0,0,0,0,0,0,2.6236,2.6229,2.6204,2.6201,2.6206,2.6178,2.6173,2.6169,2.6137,2.6131,2.6143,2.614,2.6104,2.6101,2.6099,2.6117,2.608,2.608,2.6079,2.6105,2.6106,2.6108,0,0,0,0,0,0,2.6237,2.6235,2.6205,2.6214,2.6209,2.6178,2.6175,2.6169,2.6163,2.6132,2.6126,2.6144,2.6103,2.61,2.6101,2.6115,2.6079,2.6079,2.6104,2.6105,2.6107,2.6154,0,0,0,0,0,0,2.6238,2.6235,2.6242,2.6215,2.6209,2.6209,2.6176,2.6169,2.6163,2.6158,2.6131,2.6126,2.6102,2.6102,2.61,2.6113,2.6078,2.6102,2.6104,2.6106,2.6151,2.6157,2.6163,0,0,0,0,0,2.624,2.6255,2.6242,2.6239,2.6217,2.621,2.6207,2.618,2.6164,2.617,2.6151,2.6127,2.6114,2.6103,2.61,2.6113,2.6101,2.6104,2.6106,2.6149,2.6156,2.6162,0,0,0,0,0,0,2.6283,2.6251,2.6236,2.6244,2.623,2.6202,2.6208,2.6189,2.6178,2.6175,2.6142,2.6136,2.6141,2.6127,2.6115,2.6129,2.6104,2.6106,2.6138,2.6144,2.615,2.6153,2.6078,0,0,0,0,0,2.6294,2.6292,2.6264,2.6273,2.6267,2.624,2.6235,2.6217,2.6201,2.6194,2.6174,2.6159,2.6152,2.6147,2.6139,2.615,2.6143,2.6157,2.6163,2.6168,2.617,2.6175,2.6181,2.6116,2.6116,2.6116,0,0,2.6316,2.6298,2.6298,2.6282,2.6269,2.6267,2.6235,2.6234,2.6232,2.6193,2.6194,2.6179,2.616,2.6166,2.6168,2.6155,2.6187,2.6171,2.6175,2.6174,2.6178,2.6185,2.619,2.6118,2.6118,2.6117,0,0,2.6354,2.6341,2.6348,2.6336,2.6318,2.6299,2.6301,2.6276,2.6266,2.6266,2.6238,2.6235,2.6223,2.621,2.6202,2.6239,2.6217,2.6237,2.6266,2.6272,2.6277,2.6281,2.6295,2.63,2.6239,2.624,2.624,0,2.6383,2.638,2.6353,2.6355,2.6348,2.6316,2.6322,2.6312,2.6291,2.6287,2.6273,2.6259,2.6243,2.6247,2.6256,2.6251,2.6252,2.6239,2.6279,2.6283,2.6286,2.6299,2.6304,2.6242,2.6242,2.6242,2.6241,0,2.6416,2.6414,2.6422,2.6405,2.6399,2.6403,2.6377,2.6375,2.6357,2.6341,2.6342,2.6323,2.631,2.631,2.6292,2.6311,2.6304,2.6285,2.6259,2.6296,2.6307,2.6311,2.6246,2.6245,2.6244,2.6244,0,0,2.6479,2.6449,2.6452,2.6444,2.6422,2.642,2.6423,2.6412,2.6411,2.6399,2.64,2.6392,2.6375,2.6366,2.6347,2.6352,2.6383,2.6332,2.6331,2.6342,2.6404,2.6418,2.6423,2.6369,2.637,2.637,2.6405,0,2.6513,2.6516,2.6494,2.6503,2.6502,2.6472,2.6474,2.6461,2.6446,2.6442,2.6425,2.642,2.6398,2.6393,2.6397,2.6378,2.6395,2.6376,2.6369,2.6369,2.6374,2.6429,2.6443,2.6477,2.6409,2.641,2.641,0,2.6552,2.6544,2.6554,2.6533,2.6531,2.6534,2.6523,2.652,2.6505,2.6494,2.6486,2.6464,2.6465,2.6443,2.6444,2.6431,2.6428,2.6419,2.6419,2.6417,2.6391,2.6427,2.6487,2.6492,2.6417,2.6416,2.6416,0,2.6597,2.6588,2.6593,2.6587,2.6563,2.6566,2.6556,2.654,2.6536,2.6526,2.6523,2.6513,2.6508,2.6501,2.6478,2.6463,2.6482,2.6457,2.6472,2.6473,2.6476,2.6476,2.6536,2.6475,2.6475,2.6475,2.6475,0,2.6637,2.6644,2.6613,2.6616,2.6623,2.6597,2.6605,2.6592,2.6579,2.6578,2.6552,2.6552,2.6522,2.6519,2.6501,2.6505,2.6503,2.6493,2.6488,2.6495,2.6496,2.6491,2.6488,2.6476,2.6476,2.6476,2.6476,0,2.6687,2.6667,2.667,2.6648,2.6643,2.6649,2.663,2.6632,2.6616,2.6616,2.6615,2.659,2.6585,2.6562,2.6551,2.6539,2.6549,2.6539,2.6554,2.6551,2.6568,2.6566,2.6625,2.6632,2.6568,2.6569,2.657,0,2.6713,2.6718,2.6697,2.6696,2.6688,2.6686,2.6681,2.6657,2.6654,2.6638,2.6642,2.6636,2.6629,2.6623,2.6603,2.6595,2.6585,2.6606,2.6583,2.6591,2.6585,2.6585,2.6585,2.6611,2.6612,2.6612,2.6613,0,2.6762,2.6752,2.6748,2.674,2.6737,2.6729,2.672,2.672,2.6693,2.6691,2.6687,2.6682,2.6672,2.6666,2.6655,2.6644,2.6624,2.6621,2.6624,2.663,2.6639,2.6634,2.6567,2.6619,2.6618,2.6618,2.6617,2.6617,2.6801,2.6804,2.6791,2.6787,2.6778,2.6771,2.6772,2.6757,2.6753,2.6744,2.673,2.6728,2.6714,2.6698,2.6689,2.6687,2.6675,2.6679,2.668,2.6682,2.6685,2.664,2.6685,2.6685,2.6684,2.6684,2.6684,0,2.6848,2.6838,2.6835,2.6824,2.6822,2.6805,2.6794,2.6793,2.6792,2.6781,2.6776,2.6772,2.6766,2.6747,2.674,2.6742,2.6733,2.6741,2.674,2.6738,2.6696,2.6694,2.6749,2.6749,2.6749,2.6749,2.6749,2.6749,2.6872,2.6877,2.6866,2.6867,2.6857,2.6855,2.6851,2.6845,2.6836,2.6833,2.6829,2.6817,2.6803,2.6795,2.679,2.6784,2.6783,2.6794,2.6785,2.6747,2.674,2.6735,2.6732,2.6794,2.6794,2.6827,2.6827,2.6827]}]]